FW8050 Weather Reports


time (UTC)temp
F
wind
direction
speed
knots
gust
knots
rain 1hr
in
rain 24hr
in
rain mn
in
humidity
%
barometer
mb
20211017150519 56 169 0.9 2.6 0.00 0.00 0.00 60 1035.1
20211017145519 55 171 0.9 3.5 0.00 0.00 0.00 64 1036.2
20211017144517 55 193 0.9 1.7 0.00 0.00 0.00 65 1035.9
20211017143516 54 158 0.9 1.7 0.00 0.00 0.00 68 1035.4
20211017142519 53 101 0.9 3.5 0.00 0.00 0.00 69 1034.6
20211017141520 52 122 0.9 3.5 0.00 0.00 0.00 72 1033.6
20211017140519 51 122 0.9 1.7 0.00 0.00 0.00 74 1035.4
20211017135517 50 118 0.9 4.3 0.00 0.00 0.00 76 1034.7
20211017134517 50 123 0.9 2.6 0.00 0.00 0.00 77 1033.8
20211017133517 49 167 0.0 1.7 0.00 0.00 0.00 79 1032.8
20211017132517 48 146 0.0 1.7 0.00 0.00 0.00 79 1031.9
20211017131517 48 57 0.0 2.6 0.00 0.00 0.00 81 1030.8
20211017130517 47 53 0.0 0.9 0.00 0.00 0.00 82 1029.3
20211017125518 46 92 0.0 1.7 0.00 0.00 0.00 84 1027.8
20211017124517 46 174 0.0 0.9 0.00 0.00 0.00 87 1026.6
20211017123517 46 0.0 0.0 0.00 0.00 0.00 87 1026.0
20211017122518 46 219 0.0 0.9 0.00 0.00 0.00 87 1025.7
20211017121518 46 0.0 0.0 0.00 0.00 0.00 88 1025.3
20211017120519 46 0.0 0.0 0.00 0.00 0.00 88 1025.1
20211017115518 46 0.0 0.0 0.00 0.00 0.00 89 1025.0
20211017114518 46 238 0.0 0.0 0.00 0.00 0.00 88 1025.0
20211017113518 46 0.0 0.0 0.00 0.00 0.00 87 1025.0
20211017112518 46 0.0 0.0 0.00 0.00 0.00 85 1025.1
20211017111518 47 0.0 0.0 0.00 0.00 0.00 85 1025.2
20211017110518 47 0.0 0.0 0.00 0.00 0.00 84 1025.4
20211017105519 47 0.0 0.0 0.00 0.00 0.00 83 1025.4
20211017104516 47 0.0 0.0 0.00 0.00 0.00 83 1025.3
20211017103519 47 32 0.0 0.9 0.00 0.00 0.00 82 1025.3
20211017102519 47 110 0.0 0.9 0.00 0.00 0.00 82 1025.2
20211017101519 47 0.0 0.0 0.00 0.00 0.00 83 1025.2
20211017100516 47 334 0.0 0.9 0.00 0.00 0.00 82 1025.2
20211017095516 47 64 0.0 0.9 0.00 0.00 0.00 81 1025.3
20211017094517 48 0.0 0.0 0.00 0.00 0.00 82 1025.5
20211017093520 48 358 0.0 0.9 0.00 0.00 0.00 81 1025.4
20211017092520 48 0.0 0.0 0.00 0.00 0.00 81 1025.4
20211017091517 48 94 0.0 1.7 0.00 0.00 0.00 81 1025.4
20211017090518 48 0.0 0.0 0.00 0.00 0.00 81 1025.5
20211017085518 48 82 0.0 0.9 0.00 0.00 0.00 82 1025.2
20211017084518 48 0.0 0.0 0.00 0.00 0.00 82 1025.0
20211017083518 48 2 0.0 0.9 0.00 0.02 0.00 82 1025.1
20211017082518 48 0.0 0.0 0.00 0.04 0.00 82 1025.4
20211017081518 48 25 0.0 0.9 0.00 0.04 0.00 81 1025.7
20211017080518 49 0.0 0.0 0.00 0.04 0.00 81 1025.9
20211017075518 49 341 0.0 0.9 0.00 0.04 0.00 81 1025.9
20211017074518 49 0.0 0.0 0.00 0.04 0.00 81 1025.8
20211017073518 49 0.0 0.0 0.00 0.04 0.00 80 1025.7
20211017072519 49 0.0 0.0 0.00 0.05 0.00 81 1025.6
20211017071519 49 238 0.0 0.9 0.00 0.06 0.00 82 1025.4
20211017070519 48 0.0 0.0 0.00 0.06 0.00 80 1025.2
20211017065519 48 0.0 0.0 0.00 0.06 0.00 80 1025.0
20211017064519 48 0.0 0.0 0.00 0.07 0.00 81 1024.8
20211017063516 48 347 0.0 1.7 0.00 0.07 0.00 82 1024.5
20211017062520 48 0.0 0.0 0.00 0.08 0.00 82 1024.3
20211017061518 48 333 0.0 0.9 0.00 0.10 0.00 82 1024.1
20211017060520 48 0.0 0.0 0.00 0.11 0.00 82 1023.8
20211017055517 48 355 0.0 0.9 0.00 0.12 0.00 84 1023.6
20211017054517 48 0.0 0.0 0.00 0.20 0.00 83 1023.4
20211017053520 48 348 0.0 0.9 0.00 0.27 0.00 83 1023.0
20211017052520 48 0.0 0.0 0.00 0.35 0.00 83 1022.6
20211017051517 48 0.0 0.0 0.00 0.46 0.00 84 1022.2
20211017050518 48 12 0.0 0.9 0.00 0.51 0.00 85 1022.0
20211017045518 48 0.0 0.0 0.00 0.52 0.52 85 1021.6
20211017044517 48 0.0 0.0 0.00 0.52 0.52 84 1021.1
20211017043518 48 0.0 0.0 0.00 0.52 0.52 84 1020.6
20211017042518 48 0.0 0.0 0.00 0.52 0.52 85 1020.3
20211017041518 49 22 0.0 0.9 0.00 0.52 0.52 85 1020.4
20211017040519 49 0.0 0.0 0.00 0.52 0.52 84 1020.6
20211017035518 50 0.0 0.0 0.00 0.52 0.52 81 1020.7
20211017034519 50 0.0 0.0 0.00 0.52 0.52 81 1020.7
20211017033516 50 0.0 0.0 0.00 0.52 0.52 79 1020.8
20211017032519 51 0.0 0.0 0.00 0.52 0.52 79 1021.0
20211017031519 51 0.0 0.0 0.00 0.52 0.52 77 1021.2
20211017030519 51 0.0 0.0 0.00 0.52 0.52 77 1021.2
20211017025516 51 0.0 0.0 0.00 0.52 0.52 74 1020.9
20211017024517 51 0.0 0.0 0.00 0.52 0.52 75 1020.4
20211017023519 51 0.0 0.0 0.00 0.52 0.52 75 1020.0
20211017022520 51 0.0 0.0 0.00 0.53 0.52 76 1019.7
20211017021517 52 33 0.0 0.9 0.00 0.56 0.52 77 1019.3
20211017020517 52 0.0 0.0 0.00 0.57 0.52 74 1018.9
20211017015517 52 0.0 0.0 0.00 0.57 0.52 74 1018.5
20211017014521 52 0.0 0.0 0.00 0.57 0.52 74 1018.1
20211017013517 52 0.0 0.0 0.00 0.58 0.52 73 1017.8
20211017012518 53 0.0 0.0 0.00 0.59 0.52 73 1017.6
20211017011518 53 0.0 0.0 0.00 0.60 0.52 73 1017.4
20211017010518 53 0.0 0.0 0.00 0.70 0.52 70 1017.3
20211017005521 54 0.0 0.0 0.00 0.71 0.52 69 1017.0
20211017004518 54 0.0 0.0 0.00 0.71 0.52 68 1016.5
20211017003518 54 48 0.0 0.0 0.00 0.71 0.52 68 1016.1
20211017002518 54 61 0.0 0.9 0.00 0.71 0.52 67 1015.5
20211017001518 54 45 0.0 0.9 0.00 0.71 0.52 66 1015.0
20211017000519 55 35 0.0 0.9 0.00 0.71 0.52 67 1014.6
20211016235519 55 0.0 0.0 0.00 0.71 0.52 67 1014.5
20211016234519 56 0.0 0.0 0.00 0.71 0.52 65 1014.9
20211016233519 57 234 0.0 0.9 0.00 0.71 0.52 64 1015.3
20211016232519 58 270 0.0 0.0 0.00 0.71 0.52 62 1015.9
20211016231519 58 201 0.0 0.9 0.00 0.71 0.52 59 1016.5
20211016230516 59 355 0.0 1.7 0.00 0.71 0.52 55 1017.0
20211016225519 60 86 0.0 1.7 0.00 0.71 0.52 53 1017.6
20211016224520 60 202 0.0 0.9 0.00 0.71 0.52 51 1018.2
20211016223517 61 138 0.0 1.7 0.00 0.71 0.52 48 1018.4
20211016222517 61 142 0.9 2.6 0.00 0.71 0.52 48 1018.5
20211016221517 62 152 0.9 4.3 0.00 0.71 0.52 46 1018.6
20211016220518 62 163 0.9 4.3 0.00 0.71 0.52 44 1018.7
20211016215520 62 156 0.9 2.6 0.00 0.71 0.52 44 1018.5
20211016214518 62 153 0.9 4.3 0.00 0.71 0.52 43 1018.5
20211016213518 63 167 1.7 3.5 0.00 0.71 0.52 41 1018.4
20211016212518 63 163 0.9 4.3 0.00 0.71 0.52 44 1018.3
20211016211518 63 202 0.9 2.6 0.00 0.71 0.52 42 1018.2
20211016210520 63 173 0.9 2.6 0.00 0.71 0.52 41 1017.9
20211016205518 63 177 0.9 2.6 0.00 0.71 0.52 42 1017.7
20211016204518 64 191 0.9 2.6 0.00 0.71 0.52 42 1017.4
20211016203519 64 178 1.7 3.5 0.00 0.71 0.52 40 1016.8
20211016202518 64 159 1.7 4.3 0.00 0.71 0.52 39 1016.3
20211016201519 64 189 1.7 5.2 0.00 0.71 0.52 39 1015.9
20211016200519 64 178 1.7 5.2 0.00 0.71 0.52 39 1015.3
20211016195516 64 195 1.7 4.3 0.00 0.71 0.52 40 1014.7
20211016194519 64 190 0.9 3.5 0.00 0.71 0.52 39 1014.0
20211016193519 64 167 1.7 5.2 0.00 0.71 0.52 40 1012.9
20211016192519 64 184 0.9 6.1 0.00 0.71 0.52 41 1012.1
20211016191517 64 196 0.9 4.3 0.00 0.71 0.52 39 1012.0
20211016190517 64 167 0.9 3.5 0.00 0.71 0.52 39 1012.0
20211016185517 65 194 1.7 6.1 0.00 0.71 0.52 39 1013.9
20211016184520 65 183 0.9 4.3 0.00 0.71 0.52 39 1018.5
20211016183517 66 206 1.7 4.3 0.00 0.71 0.52 41 1024.7
20211016182517 67 145 0.9 3.5 0.00 0.71 0.52 39 1027.6
20211016181517 67 150 0.9 5.2 0.00 0.71 0.52 39 1029.3
20211016180517 67 178 0.9 7.0 0.00 0.71 0.52 41 1030.3
20211016175519 67 155 0.9 3.5 0.00 0.71 0.52 41 1030.5
20211016174519 66 172 1.7 5.2 0.00 0.71 0.52 41 1031.0
20211016173518 65 187 0.9 2.6 0.00 0.71 0.52 44 1030.1
20211016172518 65 158 1.7 5.2 0.00 0.71 0.52 43 1030.7
20211016171518 65 146 1.7 6.1 0.00 0.71 0.52 44 1031.3
20211016170518 65 178 1.7 6.1 0.00 0.71 0.52 45 1030.8
20211016165518 65 178 1.7 5.2 0.00 0.71 0.52 45 1031.4
20211016164519 64 182 1.7 4.3 0.00 0.71 0.52 46 1031.5
20211016163518 64 169 1.7 5.2 0.00 0.71 0.52 47 1032.3
20211016162519 63 180 1.7 6.1 0.00 0.71 0.52 48 1032.1
20211016161519 63 195 1.7 6.1 0.00 0.71 0.52 48 1032.3
20211016160516 62 191 1.7 4.3 0.00 0.71 0.52 50 1031.8
20211016155519 62 199 1.7 4.3 0.00 0.71 0.52 52 1032.3
20211016154519 62 190 1.7 4.3 0.00 0.71 0.52 54 1032.4
20211016153519 62 184 1.7 3.5 0.00 0.71 0.52 55 1031.8
20211016152516 61 162 0.9 5.2 0.00 0.71 0.52 57 1030.3
20211016151520 60 144 1.7 5.2 0.00 0.71 0.52 59 1032.6